EA4LT-13 Weather Reports


Display with metric or nautical units.
time (UTC)temp
F
wind
direction
speed
MPH
gust
MPH
rain 1hr
in
rain 24hr
in
rain mn
in
humidity
%
barometer
mb
20260902191448 84 158 0.0 1.0 0.00 0.00 0.00 33 1018.3
20260902185946 86 158 0.0 1.0 0.00 0.00 0.00 30 1018.2
20260902184446 89 158 0.0 1.0 0.00 0.00 0.00 29 1018.2
20260902182947 91 158 0.0 1.0 0.00 0.00 0.00 27 1018.4
20260902181447 92 158 0.0 2.0 0.00 0.00 0.00 26 1018.1
20260902175946 93 158 0.0 2.0 0.00 0.00 0.00 26 1018.0
20260902174447 93 202 0.0 2.0 0.00 0.00 0.00 25 1018.1
20260902172946 93 112 1.0 3.0 0.00 0.00 0.00 24 1017.9
20260902171445 93 135 1.0 3.0 0.00 0.00 0.00 24 1018.1
20260902165947 94 202 3.0 3.0 0.00 0.00 0.00 24 1018.1
20260902164446 94 90 3.0 6.0 0.00 0.00 0.00 24 1018.2
20260902162945 95 202 1.0 6.0 0.00 0.00 0.00 22 1018.4
20260902161446 95 202 1.0 6.0 0.00 0.00 0.00 25 1018.2
20260902155946 93 292 3.0 9.0 0.00 0.00 0.00 27 1018.5
20260902154446 93 292 4.0 6.0 0.00 0.00 0.00 26 1018.2
20260902152945 93 270 0.0 8.0 0.00 0.00 0.00 29 1018.6
20260902151446 94 225 2.0 8.0 0.00 0.00 0.00 28 1018.4
20260902145945 94 248 0.0 8.0 0.00 0.00 0.00 28 1018.5
20260902144445 93 292 3.0 6.0 0.00 0.00 0.00 30 1018.5
20260902142946 92 158 3.0 6.0 0.00 0.00 0.00 32 1018.6
20260902141446 94 270 0.0 8.0 0.00 0.00 0.00 30 1018.6
20260902135946 92 158 2.0 6.0 0.00 0.00 0.00 33 1018.8
20260902134445 90 158 0.0 6.0 0.00 0.00 0.00 34 1019.0
20260902132946 90 135 3.0 6.0 0.00 0.00 0.00 36 1019.0
20260902131445 91 158 2.0 8.0 0.00 0.00 0.00 35 1019.3
20260902125946 89 135 3.0 8.0 0.00 0.00 0.00 37 1019.2
20260902124446 88 180 2.0 11.0 0.00 0.00 0.00 36 1019.1
20260902122945 88 158 3.0 10.0 0.00 0.00 0.00 39 1019.5
20260902121445 88 270 3.0 11.0 0.00 0.00 0.00 39 1019.4
20260902115944 88 158 2.0 6.0 0.00 0.00 0.00 37 1019.6
20260902114445 88 158 3.0 4.0 0.00 0.00 0.00 34 1019.9
20260902112945 85 158 3.0 8.0 0.00 0.00 0.00 36 1020.1
20260902111445 87 158 3.0 6.0 0.00 0.00 0.00 34 1020.2
20260902105945 87 180 3.0 6.0 0.00 0.00 0.00 34 1020.1
20260902104444 86 202 3.0 8.0 0.00 0.00 0.00 32 1020.0
20260902102944 85 158 2.0 6.0 0.00 0.00 0.00 34 1019.9
20260902101445 86 180 1.0 4.0 0.00 0.00 0.00 35 1019.7
20260902095943 85 158 0.0 6.0 0.00 0.00 0.00 39 1019.7
20260902094444 84 292 0.0 4.0 0.00 0.00 0.00 38 1019.7
20260902092944 83 158 0.0 6.0 0.00 0.00 0.00 40 1019.4
20260902091443 83 158 0.0 4.0 0.00 0.00 0.00 41 1019.4
20260902085943 82 112 0.0 2.0 0.00 0.00 0.00 46 1019.4
20260902084444 82 112 0.0 3.0 0.00 0.00 0.00 49 1019.2
20260902082944 80 135 0.0 3.0 0.00 0.00 0.00 53 1019.3
20260902081444 80 135 1.0 1.0 0.00 0.00 0.00 53 1019.1
20260902075944 78 225 0.0 1.0 0.00 0.00 0.00 55 1019.1
20260902074443 74 292 0.0 1.0 0.00 0.00 0.00 61 1018.9
20260902072943 72 292 0.0 2.0 0.00 0.00 0.00 64 1019.0
20260902071444 71 292 0.0 2.0 0.00 0.00 0.00 65 1018.6
20260902065944 69 292 1.0 1.0 0.00 0.00 0.00 67 1018.4
20260902064444 68 292 1.0 2.0 0.00 0.00 0.00 68 1018.2
20260902062944 67 292 0.0 2.0 0.00 0.00 0.00 70 1018.4
20260902061443 66 292 0.0 1.0 0.00 0.00 0.00 70 1018.2
20260902055942 66 292 1.0 1.0 0.00 0.00 0.00 71 1017.9
20260902054443 67 292 0.0 2.0 0.00 0.00 0.00 70 1017.8
20260902052942 67 292 0.0 2.0 0.00 0.00 0.00 69 1017.7
20260902051442 67 292 0.0 1.0 0.00 0.00 0.00 69 1017.6
20260902045942 67 292 0.0 1.0 0.00 0.00 0.00 70 1017.7
20260902044444 66 292 0.0 2.0 0.00 0.00 0.00 72 1017.9
20260902042942 66 315 2.0 3.0 0.00 0.00 0.00 75 1017.5
20260902041442 65 292 2.0 4.0 0.00 0.00 0.00 75 1017.5
20260902035943 66 292 2.0 3.0 0.00 0.00 0.00 75 1017.4
20260902034443 66 292 2.0 4.0 0.00 0.00 0.00 74 1017.6
20260902032942 69 292 2.0 4.0 0.00 0.00 0.00 63 1017.8
20260902031443 69 292 1.0 2.0 0.00 0.00 0.00 65 1017.6
20260902025942 69 292 1.0 3.0 0.00 0.00 0.00 64 1017.5
20260902024441 69 292 1.0 3.0 0.00 0.00 0.00 64 1017.5
20260902022943 70 292 1.0 2.0 0.00 0.00 0.00 63 1017.8
20260902021442 71 292 1.0 2.0 0.00 0.00 0.00 62 1017.6
20260902015941 71 292 1.0 3.0 0.00 0.00 0.00 63 1017.6
20260902014443 71 270 0.0 4.0 0.00 0.00 0.00 63 1017.7
20260902012942 71 270 1.0 4.0 0.00 0.00 0.00 64 1018.0
20260902011441 69 270 1.0 3.0 0.00 0.00 0.00 67 1017.8
20260902005942 69 270 0.0 2.0 0.00 0.00 0.00 68 1018.0
20260902004441 69 292 3.0 3.0 0.00 0.00 0.00 68 1017.8
20260902002941 69 292 3.0 3.0 0.00 0.00 0.00 71 1017.9
20260902001442 67 292 2.0 6.0 0.00 0.00 0.00 76 1017.8
20260901235942 66 292 4.0 6.0 0.00 0.00 0.00 77 1018.0
20260901234440 67 292 3.0 6.0 0.00 0.00 0.00 76 1017.9
20260901232942 69 315 3.0 6.0 0.00 0.00 0.00 71 1017.9
20260901231441 69 315 3.0 4.0 0.00 0.00 0.00 72 1017.7
20260901225941 68 315 2.0 6.0 0.00 0.00 0.00 74 1017.8
20260901224441 69 292 3.0 4.0 0.00 0.00 0.00 71 1018.0
20260901223837 70 292 3.0 4.0 0.00 0.00 0.00 69 1017.9
20260901222338 72 315 3.0 6.0 0.00 0.00 0.00 66 1017.9
20260901220839 72 315 5.0 10.0 0.00 0.00 0.00 65 1017.8
20260901215338 72 315 5.0 9.0 0.00 0.00 0.00 67 1017.8
20260901213838 72 338 5.0 11.0 0.00 0.00 0.00 68 1017.7
20260901212337 71 315 5.0 6.0 0.00 0.00 0.00 69 1017.6
20260901210837 72 338 3.0 6.0 0.00 0.00 0.00 68 1017.5
20260901205338 73 315 5.0 9.0 0.00 0.00 0.00 67 1017.6
20260901203836 73 292 6.0 12.0 0.00 0.00 0.00 66 1017.2
20260901202338 74 292 9.0 15.0 0.00 0.00 0.00 65 1017.1
20260901200837 75 315 6.0 11.0 0.00 0.00 0.00 61 1017.0
20260901195338 76 315 5.0 8.0 0.00 0.00 0.00 55 1016.9
20260901193836 78 315 5.0 8.0 0.00 0.00 0.00 49 1016.3